Weather History for KSKA - October, 2013

Change the Weather History Date:

Thursday, October 31, 2013

  Actual Average Record
Temperature  
Mean Temperature 43 °F -  
Max Temperature 55 °F 45 °F 57 °F (2008)
Min Temperature 32 °F 29 °F 12 °F (2002)
Degree Days  
Heating Degree Days 22    
Moisture  
Dew Point 32 °F    
Average Humidity 69    
Maximum Humidity 87    
Minimum Humidity 49    
Precipitation  
Precipitation 0.00 in - - ()
Sea Level Pressure  
Sea Level Pressure 30.07 in    
Wind  
Wind Speed 6 mph (South)    
Max Wind Speed 10 mph    
Max Gust Speed -    
Visibility 10 miles    
Events Rain    
Averages and records for this station are not official NWS values.
T = Trace of Precipitation, MM = Missing Value Source: NWS Daily Summary

Daily Weather History Graph

Daily Weather History Graph

Search for Another Location

Airport or City:

Trip Planner

Search our weather history database for the weather conditions in past years. The results will help you decide how hot, cold, wet, or windy it might be!

Date:

Astronomy

Oct. 31, 2013 Rise Set
Actual Time 7:33 AM PDT 5:34 PM PDT
Civil Twilight 7:01 AM PDT 6:06 PM PDT
Nautical Twilight 6:25 AM PDT 6:42 PM PDT
Astronomical Twilight 5:49 AM PDT 7:18 PM PDT
Moon 4:16 AM PDT (10/31) 4:04 PM PDT (10/31)
Length of Visible Light 11h 04m
Length of Day
10h 00m
Waning Crescent, 9% of the Moon is Illuminated
Oct 31
Waning Crescent
Nov 3
New
Nov 9
First Quarter
Nov 17
Full
Nov 25
Last Quarter

Hourly Weather History & Observations

Time (PDT) Temp. Windchill Dew Point Humidity Pressure Visibility Wind Dir Wind Speed Gust Speed Precip Events Conditions
12:12 AM 32.0 °F 27.5 °F 28.4 °F 87% 30.03 in 10.0 mi SE 4.6 mph - N/A   Overcast
12:58 AM 35.6 °F 28.6 °F 27.7 °F 73% 30.07 in 10.0 mi ESE 9.2 mph - 0.00 in   Overcast
1:58 AM 37.9 °F 33.5 °F 28.4 °F 69% 30.07 in 10.0 mi SSE 5.8 mph - N/A   Overcast
2:58 AM 38.1 °F - 28.4 °F 68% 30.07 in 10.0 mi South 2.3 mph - N/A   Overcast
3:58 AM 38.5 °F 32.7 °F 28.8 °F 68% 30.05 in 10.0 mi SSE 8.1 mph - N/A   Overcast
4:58 AM 39.7 °F 36.5 °F 28.0 °F 63% 30.06 in 10.0 mi SSW 4.6 mph - N/A   Mostly Cloudy
5:58 AM 39.7 °F 37.6 °F 28.6 °F 64% 30.07 in 10.0 mi East 3.5 mph - N/A   Overcast
6:58 AM 39.6 °F 37.4 °F 28.9 °F 66% 30.08 in 10.0 mi ESE 3.5 mph - N/A   Overcast
7:18 AM 39.2 °F 37.0 °F 30.2 °F 70% 30.02 in 10.0 mi East 3.5 mph - N/A   Overcast
7:27 AM 39.2 °F 37.0 °F 30.2 °F 70% 30.02 in 10.0 mi East 3.5 mph - N/A   Overcast
7:35 AM 39.2 °F 35.9 °F 28.4 °F 65% 30.02 in 10.0 mi SE 4.6 mph - N/A   Overcast
7:44 AM 39.2 °F 35.9 °F 28.4 °F 65% 30.02 in 10.0 mi SSE 4.6 mph - N/A   Overcast
7:58 AM 38.7 °F 33.6 °F 29.1 °F 69% 30.09 in 10.0 mi South 6.9 mph - 0.00 in   Overcast
7:59 AM 39.2 °F 33.6 °F 28.4 °F 65% 30.03 in 10.0 mi South 8.1 mph - N/A   Mostly Cloudy
8:00 AM 39.2 °F 33.6 °F 28.4 °F 65% 30.03 in 10.0 mi South 8.1 mph - N/A   Mostly Cloudy
8:01 AM 39.2 °F 37.0 °F 28.4 °F 65% 30.03 in 10.0 mi SSW 3.5 mph - N/A   Mostly Cloudy
8:10 AM 39.2 °F - 30.2 °F 70% 30.02 in 10.0 mi Calm Calm - N/A   Mostly Cloudy
8:24 AM 37.4 °F - 30.2 °F 75% 30.03 in 10.0 mi Calm Calm - N/A   Scattered Clouds
8:40 AM 39.2 °F 34.2 °F 30.2 °F 70% 30.03 in 10.0 mi South 6.9 mph - N/A   Scattered Clouds
8:58 AM 39.9 °F 35.1 °F 30.4 °F 69% 30.08 in 10.0 mi South 6.9 mph - 0.00 in   Scattered Clouds
9:02 AM 41.0 °F 35.8 °F 32.0 °F 70% 30.03 in 10.0 mi South 8.1 mph - N/A   Mostly Cloudy
9:34 AM 41.0 °F 37.1 °F 32.0 °F 70% 30.03 in 10.0 mi South 5.8 mph - N/A   Overcast
9:51 AM 42.8 °F 38.0 °F 32.0 °F 66% 30.03 in 10.0 mi SSW 8.1 mph - N/A Rain Light Rain
9:58 AM 42.1 °F 37.7 °F 32.9 °F 70% 30.09 in 10.0 mi South 6.9 mph - 0.00 in Rain Light Rain
10:03 AM 42.8 °F 38.0 °F 32.0 °F 66% 30.04 in 10.0 mi SSW 8.1 mph - N/A   Mostly Cloudy
10:51 AM 42.8 °F 40.1 °F 33.8 °F 70% 30.05 in 10.0 mi Variable 4.6 mph - N/A   Overcast
10:53 AM 42.8 °F 38.0 °F 33.8 °F 70% 30.05 in 10.0 mi WSW 8.1 mph - N/A   Overcast
10:58 AM 43.2 °F 38.4 °F 34.0 °F 70% 30.11 in 10.0 mi SW 8.1 mph - 0.00 in   Overcast
11:26 AM 42.8 °F 37.5 °F 35.6 °F 76% 30.04 in 10.0 mi SSW 9.2 mph - N/A   Overcast
11:32 AM 44.6 °F 39.7 °F 35.6 °F 71% 30.05 in 10.0 mi SSW 9.2 mph - N/A   Overcast
11:58 AM 47.1 °F - 36.1 °F 66% 30.10 in 10.0 mi SW 8.1 mph - 0.00 in   Mostly Cloudy
12:58 PM 51.1 °F - 36.9 °F 58% 30.08 in 10.0 mi SSW 6.9 mph - N/A   Clear
1:58 PM 53.4 °F - 36.3 °F 52% 30.07 in 10.0 mi SSW 9.2 mph - N/A   Clear
2:58 PM 54.5 °F - 35.4 °F 49% 30.07 in 10.0 mi SW 10.4 mph - N/A   Clear
3:58 PM 54.7 °F - 35.6 °F 49% 30.08 in 10.0 mi SW 8.1 mph - N/A   Clear
4:58 PM 52.3 °F - 36.0 °F 54% 30.08 in 10.0 mi SW 8.1 mph - N/A   Clear
5:58 PM 46.6 °F - 34.5 °F 63% 30.10 in 10.0 mi SSW 4.6 mph - N/A   Clear
6:58 PM 44.6 °F 40.2 °F 34.3 °F 67% 30.11 in 10.0 mi South 8.1 mph - N/A   Clear
7:58 PM 44.6 °F 40.2 °F 35.8 °F 71% 30.12 in 10.0 mi SSW 8.1 mph - N/A   Clear
8:45 PM 42.8 °F - 35.6 °F 76% 30.08 in 10.0 mi Calm Calm - N/A   Clear
8:58 PM 42.6 °F - 35.2 °F 75% 30.13 in 10.0 mi Calm Calm - 0.00 in   Clear
9:11 PM 42.8 °F - 35.6 °F 76% 30.09 in 10.0 mi South 1.2 mph - N/A   Clear
9:35 PM 39.2 °F 35.0 °F 33.8 °F 81% 30.09 in 10.0 mi South 5.8 mph - N/A   Clear
9:58 PM 42.3 °F 39.4 °F 35.8 °F 78% 30.13 in 10.0 mi SSW 4.6 mph - 0.00 in   Clear
10:07 PM 41.0 °F 36.4 °F 35.6 °F 81% 30.10 in 10.0 mi SW 6.9 mph - N/A   Clear
10:58 PM 37.4 °F 33.8 °F 33.1 °F 84% 30.16 in 10.0 mi Variable 4.6 mph - 0.00 in   Clear
11:58 PM 36.9 °F 34.3 °F 33.3 °F 87% 30.17 in 10.0 mi SE 3.5 mph - N/A   Clear